THOR ABLESTAR DEB, 133

Orbit data source: Space-Track

THOR ABLESTAR DEB, 133 is space debris in LEO originally from a launch on Thu, 29 Jun 1961 UTC launched from the Air Force Eastern Test Range (AFETR). Debris objects in space refer to the collection of defunct objects orbiting the Earth. Examples of debris include non-operational satellites, rocket bodies, and fragments generated from explosions, collisions, or faulty payload assembly.

Loading next visibility...
Identifier
133, 1961-015T
Orbit
LEO
Country
Flag of USUS
Related business
Manufacturer
Unknown
Mission
Spacecraft
Bus & Motor
Unknown
Mass
Unknown
Launch date (UTC)
1961-06-29 (64 years ago)
Launch vehicle
Unknown
Launch site
Air Force Eastern Test Range (AFETR)
Object type
Payload
Rocket body
Debris
Shape & HBR
Unknown shape, 0.6 m
Radar Cross Section
Medium (>0.1 m² and <1 m²)

Expand to show TLE details & history
Last TLE update: 14 hours ago

TLE from 14 hours ago
0 THOR ABLESTAR DEB
1 00133U 61015T   25286.93363279  .00001059  00000-0  50321-3 0  9994
2 00133  67.1123 125.5134 0052680 328.2842  31.5084 14.22469262298457
Epoch: 2025-10-13T22:24Z
TLE epoch observation values (Epoch: 2025-10-13T22:24:25.873Z)
Latitude
-0.00006°
Longitude
126.67627°
Altitude
786.881 km
Speed
7.477 km/s
True Right ascension
08h 22m 03s
True Declination
0° 00' 00"
Sunlit
Object was in daylight at epoch
Visualization orbit readout
Latitude
Unknown
Longitude
Unknown
Altitude
Unknown
Speed
Unknown
Apparent Right ascension
Unknown
Apparent Declination
Unknown
Sunlit
N/A
Visualization observer readout
Local Sidereal Time
06:28:47
Azimuth
Unknown
Elevation
Unknown
Doppler factor
Unknown
Orbital elements
Apogee altitude
853.242 km
Perigee altitude
777.452 km
Semi-major axis
7,193.484 km
Eccentricity
0.00527
Inclination
67.1123°
RAAN
125.5134°
Arg. of periapsis
328.2842°
True anomaly
31.82567°
Mean anomaly
31.5084°
Eccentric anomaly
31.66686°
Mean motion
3.55741 °/min
Orbital period
101.2 mins
BSTAR
0.00050321
Loading maneuver chart data...
Computing Atmospheric mass density...

Documentation

Showing up to 5 results
|